TimeCST,TemperatureF,Dew PointF,Humidity,Sea Level PressureIn,VisibilityMPH,Wind Direction,Wind SpeedMPH,Gust SpeedMPH,PrecipitationIn,Events,Conditions,WindDirDegrees,DateUTC
12:53 AM,18.0,9.0,68,30.45,10.0,NE,4.6,-,N/A,,Scattered Clouds,40,2013-01-14 06:53:00
1:53 AM,14.0,9.0,80,30.46,10.0,Calm,Calm,-,N/A,,Partly Cloudy,0,2013-01-14 07:53:00
2:53 AM,18.0,8.1,65,30.46,10.0,Calm,Calm,-,N/A,,Scattered Clouds,0,2013-01-14 08:53:00
4:53 AM,16.0,8.1,71,30.45,10.0,NNE,3.5,-,N/A,,Scattered Clouds,30,2013-01-14 10:53:00
5:53 AM,14.0,8.1,77,30.46,10.0,Calm,Calm,-,N/A,,Mostly Cloudy,0,2013-01-14 11:53:00
6:53 AM,14.0,9.0,80,30.50,10.0,NNW,3.5,-,N/A,,Mostly Cloudy,330,2013-01-14 12:53:00
7:53 AM,12.9,8.1,81,30.52,10.0,NW,4.6,-,N/A,,Mostly Cloudy,320,2013-01-14 13:53:00
8:53 AM,17.1,10.9,77,30.54,10.0,NNW,3.5,-,N/A,,Mostly Cloudy,340,2013-01-14 14:53:00
9:53 AM,19.9,12.0,71,30.51,10.0,NNE,6.9,-,N/A,,Mostly Cloudy,20,2013-01-14 15:53:00
10:53 AM,25.0,10.9,55,30.50,10.0,NNE,6.9,-,N/A,,Scattered Clouds,20,2013-01-14 16:53:00
11:53 AM,28.0,10.0,47,30.46,10.0,NNE,8.1,-,N/A,,Scattered Clouds,20,2013-01-14 17:53:00
12:53 PM,30.0,10.0,43,30.42,10.0,North,8.1,-,N/A,,Scattered Clouds,10,2013-01-14 18:53:00
1:53 PM,30.9,10.0,42,30.40,10.0,North,4.6,-,N/A,,Partly Cloudy,10,2013-01-14 19:53:00
2:53 PM,32.0,9.0,38,30.39,10.0,ENE,9.2,-,N/A,,Partly Cloudy,70,2013-01-14 20:53:00
3:53 PM,32.0,9.0,38,30.38,10.0,East,8.1,-,N/A,,Partly Cloudy,90,2013-01-14 21:53:00
4:53 PM,30.9,9.0,40,30.39,10.0,ENE,5.8,-,N/A,,Scattered Clouds,70,2013-01-14 22:53:00
5:53 PM,28.0,9.0,45,30.40,10.0,East,5.8,-,N/A,,Mostly Cloudy,80,2013-01-14 23:53:00
6:53 PM,27.0,10.0,49,30.41,10.0,ENE,5.8,-,N/A,,Overcast,70,2013-01-15 00:53:00
7:53 PM,27.0,10.0,49,30.41,10.0,East,5.8,-,N/A,,Overcast,80,2013-01-15 01:53:00
8:53 PM,26.1,10.0,51,30.41,10.0,East,4.6,-,N/A,,Overcast,80,2013-01-15 02:53:00
9:53 PM,26.1,10.9,53,30.40,10.0,East,6.9,-,N/A,,Overcast,80,2013-01-15 03:53:00
10:53 PM,24.1,10.9,57,30.40,10.0,East,4.6,-,N/A,,Overcast,80,2013-01-15 04:53:00
11:53 PM,23.0,10.9,60,30.40,10.0,East,3.5,-,N/A,,Overcast,100,2013-01-15 05:53:00